Franklin, PA

7:53 AM EDT on March 26, 2017 (GMT -0400)
Venango Regional

Weather History for KFKL - August, 2014

Change the Weather History Date:

Saturday, August 30, 2014

  Actual Average Record
Temperature  
Mean Temperature 70 °F -  
Max Temperature 84 °F 79 °F 96 °F (1953)
Min Temperature 57 °F 56 °F 36 °F (1934)
Cooling Degree Days 6    
Growing Degree Days 20 (Base 50)    
Moisture  
Dew Point 61 °F    
Average Humidity 71    
Maximum Humidity 88    
Minimum Humidity 54    
Precipitation  
Precipitation 0.00 in - - ()
Sea Level Pressure  
Sea Level Pressure 30.11 in    
Wind  
Wind Speed 8 mph (SSE)    
Max Wind Speed 14 mph    
Max Gust Speed 21 mph    
Visibility 10 miles    
Events      
Averages and records for this station are not official NWS values.
T = Trace of Precipitation, MM = Missing Value Source: NWS Daily Summary

Daily Weather History Graph

Daily Weather History Graph

Search for Another Location

Airport or City:

Trip Planner

Search our weather history database for the weather conditions in past years. The results will help you decide how hot, cold, wet, or windy it might be!

Date:

Astronomy

Aug. 30, 2014 Rise Set
Actual Time 6:43 AM EDT 7:55 PM EDT
Civil Twilight 6:15 AM EDT 8:24 PM EDT
Nautical Twilight 5:40 AM EDT 8:58 PM EDT
Astronomical Twilight 5:05 AM EDT 9:33 PM EDT
Moon 11:33 AM EDT (8/30) 10:25 PM EDT (8/30)
Length of Visible Light 14h 08m
Length of Day
13h 11m
Waxing Crescent, 23% of the Moon is Illuminated
Aug 30
Waxing Crescent
Sep 2
First Quarter
Sep 8
Full
Sep 15
Last Quarter
Sep 24
New

Hourly Weather History & Observations

Time (EDT) Temp. Heat Index Dew Point Humidity Pressure Visibility Wind Dir Wind Speed Gust Speed Precip Events Conditions
12:15 AM 60.8 °F - 53.6 °F 77% 30.16 in 10.0 mi ESE 8.1 mph - N/A   Clear
12:35 AM 60.8 °F - 53.6 °F 77% 30.16 in 10.0 mi SE 8.1 mph - N/A   Clear
12:55 AM 62.6 °F - 53.6 °F 72% 30.16 in 10.0 mi SSE 8.1 mph - N/A   Clear
1:15 AM 62.6 °F - 53.6 °F 72% 30.16 in 10.0 mi SE 10.4 mph - N/A   Clear
1:35 AM 62.6 °F - 53.6 °F 72% 30.15 in 10.0 mi SE 9.2 mph - N/A   Clear
1:55 AM 62.6 °F - 53.6 °F 72% 30.15 in 10.0 mi SE 6.9 mph - N/A   Clear
2:15 AM 60.8 °F - 53.6 °F 77% 30.15 in 10.0 mi ESE 6.9 mph - N/A   Clear
2:35 AM 60.8 °F - 53.6 °F 77% 30.15 in 10.0 mi SE 5.8 mph - N/A   Clear
2:55 AM 60.8 °F - 53.6 °F 77% 30.15 in 10.0 mi SE 5.8 mph - N/A   Clear
3:15 AM 60.8 °F - 51.8 °F 72% 30.15 in 10.0 mi SE 5.8 mph - N/A   Clear
3:35 AM 59.0 °F - 51.8 °F 77% 30.14 in 10.0 mi ESE 5.8 mph - N/A   Clear
3:55 AM 57.2 °F - 51.8 °F 82% 30.14 in 10.0 mi ESE 6.9 mph - N/A   Clear
4:15 AM 57.2 °F - 51.8 °F 82% 30.14 in 10.0 mi ESE 6.9 mph - N/A   Clear
4:35 AM 57.2 °F - 51.8 °F 82% 30.14 in 10.0 mi ESE 5.8 mph - N/A   Clear
4:55 AM 57.2 °F - 51.8 °F 82% 30.14 in 10.0 mi ESE 5.8 mph - N/A   Clear
5:15 AM 57.2 °F - 51.8 °F 82% 30.14 in 10.0 mi ESE 6.9 mph - N/A   Clear
5:35 AM 57.2 °F - 53.6 °F 88% 30.14 in 10.0 mi ESE 8.1 mph - N/A   Clear
5:55 AM 57.2 °F - 53.6 °F 88% 30.14 in 10.0 mi ESE 5.8 mph - N/A   Clear
6:15 AM 57.2 °F - 53.6 °F 88% 30.14 in 10.0 mi ESE 5.8 mph - N/A   Clear
6:35 AM 57.2 °F - 53.6 °F 88% 30.14 in 10.0 mi ESE 5.8 mph - N/A   Clear
6:55 AM 57.2 °F - 53.6 °F 88% 30.15 in 10.0 mi SE 6.9 mph - N/A   Clear
7:15 AM 60.8 °F - 53.6 °F 77% 30.15 in 10.0 mi SE 6.9 mph - N/A   Clear
7:35 AM 60.8 °F - 55.4 °F 82% 30.15 in 10.0 mi SE 5.8 mph - N/A   Clear
7:55 AM 62.6 °F - 55.4 °F 77% 30.15 in 10.0 mi SSE 6.9 mph - N/A   Clear
8:15 AM 64.4 °F - 57.2 °F 77% 30.16 in 10.0 mi SSE 6.9 mph - N/A   Clear
8:35 AM 66.2 °F - 57.2 °F 73% 30.16 in 10.0 mi SSE 9.2 mph - N/A   Clear
8:55 AM 66.2 °F - 59.0 °F 78% 30.15 in 10.0 mi South 6.9 mph - N/A   Scattered Clouds
9:15 AM 66.2 °F - 57.2 °F 73% 30.15 in 10.0 mi South 9.2 mph - N/A   Overcast
9:35 AM 66.2 °F - 59.0 °F 78% 30.15 in 10.0 mi South 9.2 mph - N/A   Overcast
9:55 AM 69.8 °F - 60.8 °F 73% 30.15 in 10.0 mi South 9.2 mph - N/A   Mostly Cloudy
10:15 AM 71.6 °F - 62.6 °F 73% 30.14 in 10.0 mi South 12.7 mph - N/A   Partly Cloudy
10:55 AM 73.4 °F - 64.4 °F 73% 30.14 in 10.0 mi South 10.4 mph - N/A   Partly Cloudy
11:15 AM 75.2 °F - 66.2 °F 73% 30.14 in 10.0 mi South 10.4 mph - N/A   Partly Cloudy
11:35 AM 78.8 °F - 66.2 °F 65% 30.14 in 9.0 mi South 10.4 mph - N/A   Scattered Clouds
11:55 AM 77.0 °F - 66.2 °F 69% 30.14 in 10.0 mi SSE 10.4 mph - N/A   Mostly Cloudy
12:15 PM 78.8 °F - 66.2 °F 65% 30.13 in 10.0 mi South 5.8 mph - N/A   Mostly Cloudy
12:35 PM 78.8 °F - 68.0 °F 69% 30.13 in 10.0 mi SSE 12.7 mph - N/A   Partly Cloudy
12:55 PM 80.6 °F 83.2 °F 68.0 °F 65% 30.12 in 10.0 mi SSE 10.4 mph - N/A   Clear
1:15 PM 80.6 °F 83.9 °F 69.8 °F 70% 30.11 in 9.0 mi SSE 10.4 mph - N/A   Scattered Clouds
1:35 PM 82.4 °F 86.3 °F 69.8 °F 66% 30.10 in 7.0 mi SE 11.5 mph - N/A   Mostly Cloudy
1:55 PM 82.4 °F 86.3 °F 69.8 °F 66% 30.11 in 10.0 mi South 9.2 mph 19.6 mph N/A   Overcast
2:15 PM 80.6 °F 83.9 °F 69.8 °F 70% 30.10 in 7.0 mi South 11.5 mph - N/A   Overcast
2:35 PM 80.6 °F 83.9 °F 69.8 °F 70% 30.10 in 10.0 mi South 9.2 mph - N/A   Scattered Clouds
2:55 PM 82.4 °F 86.3 °F 69.8 °F 66% 30.10 in 10.0 mi South 10.4 mph 20.7 mph N/A   Scattered Clouds
3:15 PM 82.4 °F 85.4 °F 68.0 °F 62% 30.09 in 10.0 mi South 11.5 mph 17.3 mph N/A   Partly Cloudy
3:55 PM 84.2 °F 86.6 °F 66.2 °F 55% 30.08 in 10.0 mi SSW 12.7 mph 16.1 mph N/A   Clear
4:15 PM 82.4 °F 84.6 °F 66.2 °F 58% 30.08 in 10.0 mi SSW 12.7 mph - N/A   Mostly Cloudy
4:35 PM 82.4 °F 85.4 °F 68.0 °F 62% 30.07 in 10.0 mi SSW 12.7 mph - N/A   Scattered Clouds
4:55 PM 82.4 °F 84.6 °F 66.2 °F 58% 30.07 in 10.0 mi SSW 13.8 mph - N/A   Scattered Clouds
5:15 PM 82.4 °F 84.6 °F 66.2 °F 58% 30.06 in 10.0 mi SSW 12.7 mph - N/A   Partly Cloudy
5:35 PM 82.4 °F 84.6 °F 66.2 °F 58% 30.06 in 10.0 mi SSW 9.2 mph - N/A   Clear
5:55 PM 82.4 °F 84.6 °F 66.2 °F 58% 30.06 in 10.0 mi SSW 10.4 mph - N/A   Partly Cloudy
6:15 PM 82.4 °F 84.6 °F 66.2 °F 58% 30.05 in 10.0 mi SSW 11.5 mph - N/A   Clear
6:35 PM 82.4 °F 83.9 °F 64.4 °F 54% 30.04 in 10.0 mi SSW 10.4 mph - N/A   Clear
6:55 PM 80.6 °F 82.3 °F 64.4 °F 58% 30.04 in 10.0 mi South 8.1 mph - N/A   Clear
7:15 PM 80.6 °F 82.3 °F 64.4 °F 58% 30.04 in 10.0 mi South 8.1 mph - N/A   Clear
7:35 PM 78.8 °F - 66.2 °F 65% 30.04 in 10.0 mi SSE 6.9 mph - N/A   Clear
7:55 PM 77.0 °F - 66.2 °F 69% 30.04 in 10.0 mi South 9.2 mph - N/A   Clear
8:15 PM 77.0 °F - 64.4 °F 65% 30.05 in 10.0 mi South 8.1 mph - N/A   Clear
8:35 PM 75.2 °F - 64.4 °F 69% 30.06 in 10.0 mi South 6.9 mph - N/A   Clear
8:55 PM 75.2 °F - 64.4 °F 69% 30.06 in 10.0 mi South 6.9 mph - N/A   Scattered Clouds
9:35 PM 75.2 °F - 66.2 °F 73% 30.07 in 10.0 mi South 9.2 mph - N/A   Overcast
9:55 PM 75.2 °F - 64.4 °F 69% 30.07 in 10.0 mi South 9.2 mph - N/A   Overcast
10:15 PM 75.2 °F - 64.4 °F 69% 30.07 in 10.0 mi South 10.4 mph - N/A   Mostly Cloudy
10:35 PM 75.2 °F - 64.4 °F 69% 30.07 in 10.0 mi South 10.4 mph - N/A   Scattered Clouds
10:55 PM 75.2 °F - 64.4 °F 69% 30.07 in 10.0 mi South 10.4 mph - N/A   Mostly Cloudy
11:15 PM 73.4 °F - 64.4 °F 73% 30.07 in 10.0 mi South 9.2 mph - N/A   Mostly Cloudy
11:35 PM 73.4 °F - 64.4 °F 73% 30.06 in 10.0 mi South 10.4 mph - N/A   Partly Cloudy
11:55 PM 73.4 °F - 64.4 °F 73% 30.06 in 10.0 mi South 10.4 mph - N/A   Scattered Clouds